| time (UTC) | temp F | wind direction | speed knots | gust knots | rain 1hr in | rain 24hr in | rain mn in | humidity % | barometer mb |
| 20260902010004 | 60 | 233 | 0.9 | 5.2 | 0.00 | 0.02 | 0.00 | 89 | 1010.5 |
| 20260902004504 | 61 | 217 | 1.7 | 6.1 | 0.00 | 0.02 | 0.00 | 88 | 1010.5 |
| 20260902001504 | 61 | 285 | 1.7 | 4.3 | 0.00 | 0.02 | 0.00 | 88 | 1010.4 |
| 20260902000004 | 61 | 273 | 1.7 | 6.1 | 0.00 | 0.02 | 0.00 | 88 | 1010.4 |
| 20260901233004 | 62 | 264 | 0.9 | 5.2 | 0.00 | 0.02 | 0.00 | 87 | 1010.4 |
| 20260901230005 | 62 | 229 | 1.7 | 4.3 | 0.00 | 0.02 | 0.00 | 87 | 1010.7 |
| 20260901224504 | 62 | 261 | 1.7 | 5.2 | 0.00 | 0.02 | 0.00 | 86 | 1010.3 |
| 20260901223006 | 62 | 276 | 2.6 | 6.1 | 0.00 | 0.02 | 0.00 | 85 | 1010.3 |
| 20260901221504 | 63 | 299 | 1.7 | 5.2 | 0.00 | 0.02 | 0.00 | 84 | 1010.2 |
| 20260901213005 | 64 | 272 | 2.6 | 6.1 | 0.00 | 0.02 | 0.02 | 83 | 1009.8 |
| 20260901204504 | 65 | 285 | 4.3 | 7.8 | 0.00 | 0.02 | 0.02 | 82 | 1009.7 |
| 20260901200004 | 65 | 265 | 2.6 | 7.8 | 0.00 | 0.02 | 0.02 | 83 | 1009.6 |
| 20260901194504 | 65 | 277 | 3.5 | 8.7 | 0.00 | 0.02 | 0.02 | 83 | 1009.4 |
| 20260901193005 | 65 | 277 | 1.7 | 7.0 | 0.00 | 0.02 | 0.02 | 83 | 1009.4 |
| 20260901190004 | 66 | 280 | 1.7 | 5.2 | 0.00 | 0.02 | 0.02 | 82 | 1009.0 |
| 20260901183005 | 67 | 275 | 1.7 | 6.1 | 0.00 | 0.02 | 0.02 | 79 | 1008.7 |
| 20260901181504 | 67 | 283 | 4.3 | 6.1 | 0.00 | 0.02 | 0.02 | 77 | 1008.7 |
| 20260901173005 | 67 | 222 | 0.9 | 2.6 | 0.00 | 0.02 | 0.02 | 86 | 1008.4 |
| 20260901163005 | 68 | 262 | 0.0 | 2.6 | 0.00 | 0.02 | 0.02 | 82 | 1008.0 |
| 20260901153005 | 71 | 217 | 1.7 | 7.0 | 0.01 | 0.02 | 0.02 | 77 | 1007.7 |
| 20260901150005 | 70 | 197 | 1.7 | 5.2 | 0.00 | 0.02 | 0.02 | 80 | 1007.8 |
| 20260901144505 | 69 | 216 | 1.7 | 5.2 | 0.00 | 0.02 | 0.02 | 80 | 1007.8 |
| 20260901133005 | 66 | 282 | 2.6 | 7.8 | 0.01 | 0.02 | 0.02 | 83 | 1007.8 |
| 20260901131504 | 69 | 212 | 3.5 | 10.4 | 0.00 | 0.01 | 0.01 | 77 | 1007.8 |
| 20260901124505 | 69 | 191 | 3.5 | 8.7 | 0.00 | 0.01 | 0.01 | 74 | 1007.8 |
| 20260901121504 | 70 | 218 | 2.6 | 7.0 | 0.00 | 0.01 | 0.01 | 72 | 1007.8 |
| 20260901114504 | 69 | 225 | 1.7 | 6.1 | 0.00 | 0.01 | 0.01 | 75 | 1007.9 |
| 20260901110005 | 67 | 197 | 2.6 | 5.2 | 0.00 | 0.01 | 0.01 | 78 | 1008.1 |
| 20260901104504 | 66 | 238 | 1.7 | 5.2 | 0.00 | 0.01 | 0.01 | 79 | 1008.1 |
| 20260901101504 | 65 | 258 | 1.7 | 7.0 | 0.00 | 0.01 | 0.01 | 81 | 1008.1 |
| 20260901094504 | 65 | 241 | 3.5 | 7.0 | 0.00 | 0.01 | 0.01 | 81 | 1008.0 |
| 20260901093006 | 65 | 263 | 0.9 | 6.1 | 0.00 | 0.01 | 0.01 | 81 | 1008.0 |
| 20260901083005 | 64 | 251 | 2.6 | 7.0 | 0.00 | 0.01 | 0.01 | 83 | 1007.4 |
| 20260901081504 | 64 | 239 | 2.6 | 6.1 | 0.00 | 0.01 | 0.01 | 84 | 1007.4 |
| 20260901080005 | 64 | 254 | 2.6 | 6.1 | 0.00 | 0.01 | 0.01 | 86 | 1007.4 |
| 20260901071504 | 63 | 256 | 1.7 | 4.3 | 0.00 | 0.01 | 0.01 | 89 | 1006.7 |
| 20260901070005 | 62 | 283 | 1.7 | 2.6 | 0.00 | 0.01 | 0.01 | 90 | 1006.7 |
| 20260901061504 | 61 | 285 | 0.9 | 2.6 | 0.00 | 0.01 | 0.01 | 91 | 1006.6 |
| 20260901054504 | 61 | 276 | 1.7 | 2.6 | 0.00 | 0.01 | 0.01 | 91 | 1006.6 |
| 20260901051504 | 61 | 250 | 0.9 | 2.6 | 0.00 | 0.01 | 0.01 | 92 | 1006.5 |
| 20260901041505 | 61 | 201 | 0.9 | 4.3 | 0.00 | 0.01 | 0.01 | 92 | 1006.5 |
| 20260901040004 | 61 | 210 | 1.7 | 5.2 | 0.00 | 0.01 | 0.01 | 92 | 1006.6 |
| 20260901033005 | 61 | 241 | 2.6 | 7.0 | 0.00 | 0.01 | 0.01 | 91 | 1006.6 |
| 20260901031503 | 61 | 226 | 1.7 | 5.2 | 0.00 | 0.01 | 0.01 | 91 | 1006.4 |
| 20260901024504 | 62 | 218 | 1.7 | 5.2 | 0.00 | 0.01 | 0.01 | 91 | 1006.3 |